Location: Catstown
(52.4386°N, 7.2633°W)
Time: 06:41:57
(UTC+00:00)

Cosmos 1626 - Pass Details

Date: 18 September 2020
Orbit: 490 x 495 km, 82.5° (Epoch: 19 October)

Event Time Altitude Azimuth Distance (km) Brightness Sun altitude
Rises 20:11:56 0° 357° (N) 2,592 6.1 -15.0°
Reaches altitude 10° 20:14:18 10° 10° (N) 1,703 5.0 -15.4°
Maximum altitude 20:17:31 27° 70° (ENE) 977 3.2 -15.8°
Enters shadow 20:17:47 27° 77° (ENE) 983 3.2 -15.8°
